Location: Newark
(52.3735°N, 16.9806°E)
Time: 09:55:25
(UTC+00:00)

X-37B - Pass Details

Date: 28 September 2021
Orbit: 385 x 389 km, 45.0° (Epoch: 13 October)

Event Time Altitude Azimuth Distance (km) Brightness Sun altitude
Exits shadow 03:58:25 10° 238° (WSW) 1,426 2.9 -8.4°
Reaches altitude 10° 03:58:27 10° 238° (WSW) 1,414 2.9 -8.4°
Maximum altitude 04:00:55 21° 187° (S) 946 2.4 -8.0°
Drops below altitude 10° 04:03:22 10° 136° (SE) 1,414 4.0 -7.7°
Sets 04:05:45 0° 120° (ESE) 2,269 5.5 -7.3°
